STARLINK-2582 (48460 NORAD) Tracking and Keplerian Element Data

This shows tracking and keplerian element data for the satellite.

Feedback or suggestion? Click here.




ElementValue
Catalog48460
NameSTARLINK-2582
Epoch Orbit1393
Epoch Day215.25002315
Epoch Year2021
RAAN165.9048
Inclination53.0534
Eccentricity0.0001905
Argument of Perigee66.0326
Mean Anonmoly129.0658
Mean Motion15.06389619
Decay Rate0.00028543
L11 48460U 21040AJ 21215.25002315 .00028543 00000-0 19279-2 0 9990
L22 48460 53.0534 165.9048 0001905 66.0326 129.0658 15.06389619 13930

Live tracking and technical data element details for STARLINK-2582 (NORAD 48460). STARLINK-2582 can be tracked NOW for your location showing map with azimuth and elevation plus other details from your city location.

Track the satellite on the map from your city or location and see movement details for azimuth, elevation, latitude, longitude, range, height, and movement on the map or in text.







IsCatalogInMostPopularTable: catalog: 48460, numindb: 26
Update: records affected: 1



GetName: 48460 STARLINK-2582

Hit Count: updated at: Tue, 03 Aug 2021 21:21:40 GMT